ProjectID,Date,Electric Generation,Electric Utility Import,Facility Electric Load
,YYYY-MM-DD,kW,kW,kW
442,2017-05-01,0.0,,0.0
442,2017-05-02,0.0,,0.0
442,2017-05-03,0.0,,0.0
442,2017-05-04,0.0,,0.0
442,2017-05-05,0.0,,0.0
442,2017-05-06,0.0,,0.0
442,2017-05-07,0.0,,0.0
442,2017-05-08,0.0,,0.0
442,2017-05-09,0.0,,0.0
442,2017-05-10,0.0,,0.0
442,2017-05-11,15.208833333333333,,15.208833333333333
442,2017-05-12,28.216375,,28.216375
442,2017-05-13,32.68549999999999,,32.68549999999999
442,2017-05-14,27.131208333333333,,27.131208333333333
442,2017-05-15,26.562916666666666,,26.562916666666666
442,2017-05-16,26.98408333333333,,26.98408333333333
442,2017-05-17,31.647958333333335,,31.647958333333335
442,2017-05-18,29.054083333333327,,29.054083333333327
442,2017-05-19,30.72708333333333,,30.72708333333333
442,2017-05-20,2.6821249999999996,,2.6821249999999996
442,2017-05-21,0.0,,0.0
442,2017-05-22,17.569333333333333,,17.569333333333333
442,2017-05-23,32.42091666666666,,32.42091666666666
442,2017-05-24,18.737,,18.737
442,2017-05-25,0.0,,0.0
442,2017-05-26,0.0,,0.0
442,2017-05-27,0.0,,0.0
442,2017-05-28,0.0,,0.0
442,2017-05-29,0.0,,0.0
442,2017-05-30,0.0,,0.0
442,2017-05-31,0.0,,0.0
442,2017-06-01,0.0,,0.0
442,2017-06-02,0.0,,0.0
442,2017-06-03,0.0,,0.0
442,2017-06-04,0.0,,0.0
442,2017-06-05,0.0,,0.0
442,2017-06-06,13.740791666666667,,13.740791666666667
442,2017-06-07,32.701249999999995,,32.701249999999995
442,2017-06-08,32.43679166666666,,32.43679166666666
442,2017-06-09,32.06,,32.06
442,2017-06-10,31.33616666666667,,31.33616666666667
442,2017-06-11,30.780416666666664,,30.780416666666664
442,2017-06-12,30.418833333333335,,30.418833333333335
442,2017-06-13,30.04404166666667,,30.04404166666667
442,2017-06-14,30.93279166666666,,30.93279166666666
442,2017-06-15,31.410583333333324,,31.410583333333324
442,2017-06-16,31.619250000000005,,31.619250000000005
442,2017-06-17,31.50220833333334,,31.50220833333334
442,2017-06-18,31.11620833333333,,31.11620833333333
442,2017-06-19,30.886208333333325,,30.886208333333325
442,2017-06-20,30.831208333333326,,30.831208333333326
442,2017-06-21,19.03633333333333,,19.03633333333333
442,2017-06-22,0.0,,0.0
442,2017-06-23,0.0,,0.0
442,2017-06-24,0.0,,0.0
442,2017-06-25,0.0,,0.0
442,2017-06-26,0.0,,0.0
442,2017-06-27,0.0,,0.0
442,2017-06-28,0.0,,0.0
442,2017-06-29,0.0,,0.0
442,2017-06-30,0.0,,0.0
442,2017-07-01,0.0,,0.0
442,2017-07-02,0.0,,0.0
442,2017-07-03,0.0,,0.0
442,2017-07-04,0.0,,0.0
442,2017-07-05,0.0,,0.0
442,2017-07-06,0.0,,0.0
442,2017-07-07,18.221875,,18.221875
442,2017-07-08,30.883583333333338,,30.883583333333338
442,2017-07-09,31.057958333333335,,31.057958333333335
442,2017-07-10,30.911041666666666,,30.911041666666666
442,2017-07-11,30.738583333333324,,30.738583333333324
442,2017-07-12,1.301125,,1.301125
442,2017-07-13,28.688499999999994,,28.688499999999994
442,2017-07-14,31.358666666666668,,31.358666666666668
442,2017-07-15,30.95520833333333,,30.95520833333333
442,2017-07-16,30.682166666666674,,30.682166666666674
442,2017-07-17,30.841625000000008,,30.841625000000008
442,2017-07-18,30.370249999999995,,30.370249999999995
442,2017-07-19,30.396541666666675,,30.396541666666675
442,2017-07-20,30.15425,,30.15425
442,2017-07-21,29.97945833333333,,29.97945833333333
442,2017-07-22,30.158541666666668,,30.158541666666668
442,2017-07-23,30.671750000000003,,30.671750000000003
442,2017-07-24,31.215208333333333,,31.215208333333333
442,2017-07-25,31.64491666666667,,31.64491666666667
442,2017-07-26,31.40166666666667,,31.40166666666667
442,2017-07-27,31.35204166666667,,31.35204166666667
442,2017-07-28,30.941708333333334,,30.941708333333334
442,2017-07-29,31.248125000000005,,31.248125000000005
442,2017-07-30,31.396375000000003,,31.396375000000003
442,2017-07-31,30.875750000000007,,30.875750000000007
442,2017-08-01,30.551624999999998,,30.551624999999998
442,2017-08-02,29.468208333333326,,29.468208333333326
442,2017-08-03,30.765166666666662,,30.765166666666662
442,2017-08-04,30.690499999999997,,30.690499999999997
442,2017-08-05,31.17679166666667,,31.17679166666667
442,2017-08-06,31.343833333333333,,31.343833333333333
442,2017-08-07,31.475125000000002,,31.475125000000002
442,2017-08-08,31.270875,,31.270875
442,2017-08-09,31.030000000000005,,31.030000000000005
442,2017-08-10,30.960708333333343,,30.960708333333343
442,2017-08-11,1.3178750000000001,,1.3178750000000001
442,2017-08-12,0.0,,0.0
442,2017-08-13,0.0,,0.0
442,2017-08-14,29.274708333333336,,29.274708333333336
442,2017-08-15,31.104125,,31.104125
442,2017-08-16,30.89108333333333,,30.89108333333333
442,2017-08-17,30.937875000000002,,30.937875000000002
442,2017-08-18,30.718416666666666,,30.718416666666666
442,2017-08-19,30.624583333333334,,30.624583333333334
442,2017-08-20,30.83095833333333,,30.83095833333333
442,2017-08-21,30.623541666666668,,30.623541666666668
442,2017-08-22,30.592625,,30.592625
442,2017-08-23,31.015249999999998,,31.015249999999998
442,2017-08-24,31.197583333333338,,31.197583333333338
442,2017-08-25,31.322208333333336,,31.322208333333336
442,2017-08-26,31.522791666666667,,31.522791666666667
442,2017-08-27,31.574875000000006,,31.574875000000006
442,2017-08-28,31.526083333333343,,31.526083333333343
442,2017-08-29,31.845416666666676,,31.845416666666676
442,2017-08-30,31.848000000000003,,31.848000000000003
442,2017-08-31,31.544250000000005,,31.544250000000005
442,2017-09-01,32.15533333333334,,32.15533333333334
442,2017-09-02,32.31420833333334,,32.31420833333334
442,2017-09-03,32.27641666666667,,32.27641666666667
442,2017-09-04,31.903000000000002,,31.903000000000002
442,2017-09-05,31.561208333333337,,31.561208333333337
442,2017-09-06,27.704458333333335,,27.704458333333335
442,2017-09-07,31.848000000000003,,31.848000000000003
442,2017-09-08,31.83245833333333,,31.83245833333333
442,2017-09-09,32.262416666666674,,32.262416666666674
442,2017-09-10,32.22329166666667,,32.22329166666667
442,2017-09-11,31.675583333333332,,31.675583333333332
442,2017-09-12,31.29070833333334,,31.29070833333334
442,2017-09-13,31.258583333333338,,31.258583333333338
442,2017-09-14,22.809166666666666,,22.809166666666666
442,2017-09-15,11.602375,,11.602375
442,2017-09-16,31.027375000000003,,31.027375000000003
442,2017-09-17,31.209374999999998,,31.209374999999998
442,2017-09-18,30.990541666666672,,30.990541666666672
442,2017-09-19,31.030874999999995,,31.030874999999995
442,2017-09-20,30.896125,,30.896125
442,2017-09-21,30.682708333333327,,30.682708333333327
442,2017-09-22,30.89125,,30.89125
442,2017-09-23,30.658541666666668,,30.658541666666668
442,2017-09-24,30.61554166666666,,30.61554166666666
442,2017-09-25,30.573291666666673,,30.573291666666673
442,2017-09-26,30.78850000000001,,30.78850000000001
442,2017-09-27,30.531583333333334,,30.531583333333334
442,2017-09-28,30.79858333333333,,30.79858333333333
442,2017-09-29,31.740916666666664,,31.740916666666664
442,2017-09-30,32.136374999999994,,32.136374999999994
442,2017-10-01,32.39525,,32.39525
442,2017-10-02,31.838916666666666,,31.838916666666666
442,2017-10-03,32.031041666666674,,32.031041666666674
442,2017-10-04,32.068333333333335,,32.068333333333335
442,2017-10-05,31.333708333333323,,31.333708333333323
442,2017-10-06,31.10575,,31.10575
442,2017-10-07,31.04691666666666,,31.04691666666666
442,2017-10-08,30.945666666666668,,30.945666666666668
442,2017-10-09,31.015583333333336,,31.015583333333336
442,2017-10-10,30.87895833333334,,30.87895833333334
442,2017-10-11,31.211583333333337,,31.211583333333337
442,2017-10-12,31.166708333333332,,31.166708333333332
442,2017-10-13,31.850333333333335,,31.850333333333335
442,2017-10-14,31.591083333333327,,31.591083333333327
442,2017-10-15,31.54525,,31.54525
442,2017-10-16,31.999125000000003,,31.999125000000003
442,2017-10-17,32.72499999999999,,32.72499999999999
442,2017-10-18,28.134749999999993,,28.134749999999993
442,2017-10-19,24.388333333333332,,24.388333333333332
442,2017-10-20,12.494666666666667,,12.494666666666667
442,2017-10-21,10.332541666666668,,10.332541666666668
442,2017-10-22,24.565166666666666,,24.565166666666666
442,2017-10-23,21.73375,,21.73375
442,2017-10-24,23.172291666666666,,23.172291666666666
442,2017-10-25,22.83370833333333,,22.83370833333333
442,2017-10-26,25.626749999999998,,25.626749999999998
442,2017-10-27,24.826583333333335,,24.826583333333335
442,2017-10-28,24.60254166666667,,24.60254166666667
442,2017-10-29,24.835000000000004,,24.835000000000004
442,2017-10-30,22.42775,,22.42775
442,2017-10-31,24.170541666666665,,24.170541666666665
442,2017-11-01,23.69691666666667,,23.69691666666667
442,2017-11-02,21.772541666666665,,21.772541666666665
442,2017-11-03,20.86066666666667,,20.86066666666667
442,2017-11-04,26.296291666666672,,26.296291666666672
442,2017-11-05,24.500041666666664,,24.500041666666664
442,2017-11-06,24.705124999999995,,24.705124999999995
442,2017-11-07,28.99941666666666,,28.99941666666666
442,2017-11-08,26.581416666666666,,26.581416666666666
442,2017-11-09,24.481416666666664,,24.481416666666664
442,2017-11-10,25.48495833333334,,25.48495833333334
442,2017-11-11,27.105166666666666,,27.105166666666666
442,2017-11-12,27.62504166666666,,27.62504166666666
442,2017-11-13,26.315416666666668,,26.315416666666668
442,2017-11-14,25.544874999999994,,25.544874999999994
442,2017-11-15,26.308958333333337,,26.308958333333337
442,2017-11-16,27.268875000000005,,27.268875000000005
442,2017-11-17,26.433291666666666,,26.433291666666666
442,2017-11-18,26.71354166666667,,26.71354166666667
442,2017-11-19,27.55366666666667,,27.55366666666667
442,2017-11-20,27.587874999999997,,27.587874999999997
442,2017-11-21,27.83620833333333,,27.83620833333333
442,2017-11-22,29.482208333333332,,29.482208333333332
442,2017-11-23,30.812500000000004,,30.812500000000004
442,2017-11-24,27.943583333333333,,27.943583333333333
442,2017-11-25,27.353458333333332,,27.353458333333332
442,2017-11-26,26.94633333333333,,26.94633333333333
442,2017-11-27,28.271208333333334,,28.271208333333334
442,2017-11-28,26.967208333333335,,26.967208333333335
442,2017-11-29,1.4124583333333334,,1.4124583333333334
442,2017-11-30,25.188416666666665,,25.188416666666665
442,2017-12-01,27.943708333333333,,27.943708333333333
442,2017-12-02,29.303874999999994,,29.303874999999994
442,2017-12-03,27.578500000000005,,27.578500000000005
442,2017-12-04,26.253708333333336,,26.253708333333336
442,2017-12-05,25.498499999999996,,25.498499999999996
442,2017-12-06,26.438541666666666,,26.438541666666666
442,2017-12-07,26.958083333333335,,26.958083333333335
442,2017-12-08,27.88445833333333,,27.88445833333333
442,2017-12-09,29.172333333333338,,29.172333333333338
442,2017-12-10,1.135125,,1.135125
442,2017-12-11,26.38054166666667,,26.38054166666667
442,2017-12-12,29.124083333333335,,29.124083333333335
442,2017-12-13,28.836333333333332,,28.836333333333332
442,2017-12-14,1.419625,,1.419625
442,2017-12-15,0.0,,0.0
442,2017-12-16,0.0,,0.0
442,2017-12-17,0.0,,0.0
442,2017-12-18,26.659125,,26.659125
442,2017-12-19,28.917708333333334,,28.917708333333334
442,2017-12-20,27.93525,,27.93525
442,2017-12-21,1.4157083333333331,,1.4157083333333331
442,2017-12-22,28.26066666666667,,28.26066666666667
442,2017-12-23,27.944333333333336,,27.944333333333336
442,2017-12-24,30.963875000000005,,30.963875000000005
442,2017-12-25,28.719083333333327,,28.719083333333327
442,2017-12-26,28.618125000000003,,28.618125000000003
442,2017-12-27,29.182708333333334,,29.182708333333334
442,2017-12-28,29.885833333333338,,29.885833333333338
442,2017-12-29,30.484875000000002,,30.484875000000002
442,2017-12-30,30.370833333333326,,30.370833333333326
442,2017-12-31,29.46920833333333,,29.46920833333333
442,2018-01-01,28.3865,,28.3865
442,2018-01-02,30.801208333333335,,30.801208333333335
442,2018-01-03,32.010333333333335,,32.010333333333335
442,2018-01-04,28.51995833333334,,28.51995833333334
442,2018-01-05,31.062249999999995,,31.062249999999995
442,2018-01-06,30.919041666666672,,30.919041666666672
442,2018-01-07,30.73533333333333,,30.73533333333333
442,2018-01-08,31.27270833333333,,31.27270833333333
442,2018-01-09,31.034333333333336,,31.034333333333336
442,2018-01-10,30.66316666666668,,30.66316666666668
442,2018-01-11,30.524333333333335,,30.524333333333335
442,2018-01-12,28.853250000000006,,28.853250000000006
442,2018-01-13,29.963916666666666,,29.963916666666666
442,2018-01-14,31.40858333333333,,31.40858333333333
442,2018-01-15,30.294708333333332,,30.294708333333332
442,2018-01-16,30.553791666666672,,30.553791666666672
442,2018-01-17,31.89170833333334,,31.89170833333334
442,2018-01-18,31.839,,31.839
442,2018-01-19,30.562833333333334,,30.562833333333334
442,2018-01-20,29.98675,,29.98675
442,2018-01-21,30.47175,,30.47175
442,2018-01-22,30.781000000000006,,30.781000000000006
442,2018-01-23,30.756916666666665,,30.756916666666665
442,2018-01-24,30.469250000000006,,30.469250000000006
442,2018-01-25,1.4189583333333333,,1.4189583333333333
442,2018-01-26,0.0,,0.0
442,2018-01-27,0.0,,0.0
442,2018-01-28,0.0,,0.0
442,2018-01-29,0.0,,0.0
442,2018-01-30,0.0,,0.0
442,2018-01-31,0.0,,0.0
442,2018-02-01,0.0,,0.0
442,2018-02-02,0.0,,0.0
442,2018-02-03,0.0,,0.0
442,2018-02-04,0.0,,0.0
442,2018-02-05,0.0,,0.0
442,2018-02-06,0.0,,0.0
442,2018-02-07,17.42741666666667,,17.42741666666667
442,2018-02-08,31.467124999999992,,31.467124999999992
442,2018-02-09,29.281583333333334,,29.281583333333334
442,2018-02-10,30.105916666666673,,30.105916666666673
442,2018-02-11,27.451499999999996,,27.451499999999996
442,2018-02-12,29.42620833333334,,29.42620833333334
442,2018-02-13,28.66187499999999,,28.66187499999999
442,2018-02-14,29.457208333333337,,29.457208333333337
442,2018-02-15,9.557041666666665,,9.557041666666665
442,2018-02-16,29.19762499999999,,29.19762499999999
442,2018-02-17,8.889374999999992,,8.889374999999992
442,2018-02-18,-0.3360000000000001,,-0.3360000000000001
442,2018-02-19,18.847458333333332,,18.847458333333332
442,2018-02-20,24.295416666666664,,24.295416666666664
442,2018-02-21,25.239250000000002,,25.239250000000002
442,2018-02-22,25.094166666666663,,25.094166666666663
442,2018-02-23,25.27120833333333,,25.27120833333333
442,2018-02-24,25.671083333333332,,25.671083333333332
442,2018-02-25,25.461333333333332,,25.461333333333332
442,2018-02-26,26.744708333333335,,26.744708333333335
442,2018-02-27,26.10858333333334,,26.10858333333334
442,2018-02-28,19.132166666666667,,19.132166666666667
442,2018-03-01,0.0,,0.0
442,2018-03-02,8.948041666666667,,8.948041666666667
442,2018-03-03,25.433333333333334,,25.433333333333334
442,2018-03-04,25.372124999999997,,25.372124999999997
442,2018-03-05,25.85258333333334,,25.85258333333334
442,2018-03-06,26.612291666666664,,26.612291666666664
442,2018-03-07,25.524374999999996,,25.524374999999996
442,2018-03-08,25.924875,,25.924875
442,2018-03-09,26.62783333333333,,26.62783333333333
442,2018-03-10,26.107083333333335,,26.107083333333335
442,2018-03-11,23.88625,,23.88625
442,2018-03-12,26.344708333333333,,26.344708333333333
442,2018-03-13,26.90404166666667,,26.90404166666667
442,2018-03-14,26.060249999999996,,26.060249999999996
442,2018-03-15,26.057,,26.057
442,2018-03-16,27.279541666666663,,27.279541666666663
442,2018-03-17,26.387750000000008,,26.387750000000008
442,2018-03-18,26.771208333333337,,26.771208333333337
442,2018-03-19,26.392958333333336,,26.392958333333336
442,2018-03-20,26.409208333333336,,26.409208333333336
442,2018-03-21,26.155958333333334,,26.155958333333334
442,2018-03-22,26.41179166666667,,26.41179166666667
442,2018-03-23,27.080500000000004,,27.080500000000004
442,2018-03-24,26.838333333333328,,26.838333333333328
442,2018-03-25,26.66525,,26.66525
442,2018-03-26,26.174916666666665,,26.174916666666665
442,2018-03-27,25.77508333333333,,25.77508333333333
442,2018-03-28,26.303833333333333,,26.303833333333333
442,2018-03-29,26.940625,,26.940625
442,2018-03-30,25.400833333333335,,25.400833333333335
442,2018-03-31,23.703583333333338,,23.703583333333338
442,2018-04-01,24.89625,,24.89625
442,2018-04-02,24.098,,24.098
442,2018-04-03,23.81579166666667,,23.81579166666667
442,2018-04-04,24.934124999999998,,24.934124999999998
442,2018-04-05,23.054333333333332,,23.054333333333332
442,2018-04-06,24.75175,,24.75175
442,2018-04-07,23.613166666666668,,23.613166666666668
442,2018-04-08,24.11370833333333,,24.11370833333333
442,2018-04-09,23.635166666666663,,23.635166666666663
442,2018-04-10,23.29345833333333,,23.29345833333333
442,2018-04-11,24.029708333333332,,24.029708333333332
442,2018-04-12,24.303208333333334,,24.303208333333334
442,2018-04-13,24.04666666666667,,24.04666666666667
442,2018-04-14,22.808958333333333,,22.808958333333333
442,2018-04-15,23.458708333333334,,23.458708333333334
442,2018-04-16,23.20295833333333,,23.20295833333333
442,2018-04-17,24.76529166666667,,24.76529166666667
442,2018-04-18,23.143041666666658,,23.143041666666658
442,2018-04-19,24.658125,,24.658125
442,2018-04-20,24.59170833333333,,24.59170833333333
442,2018-04-21,23.477666666666664,,23.477666666666664
442,2018-04-22,24.396249999999995,,24.396249999999995
442,2018-04-23,24.743166666666667,,24.743166666666667
442,2018-04-24,25.214625,,25.214625
442,2018-04-25,25.021874999999998,,25.021874999999998
442,2018-04-26,24.673,,24.673
442,2018-04-27,24.932708333333334,,24.932708333333334
442,2018-04-28,24.249124999999996,,24.249124999999996
442,2018-04-29,24.94775,,24.94775
442,2018-04-30,25.946416666666664,,25.946416666666664
442,2018-05-01,24.905375000000003,,24.905375000000003
442,2018-05-02,24.200958333333332,,24.200958333333332
442,2018-05-03,22.904041666666668,,22.904041666666668
442,2018-05-04,21.4555,,21.4555
442,2018-05-05,21.230833333333337,,21.230833333333337
442,2018-05-06,22.401083333333336,,22.401083333333336
442,2018-05-07,23.355166666666676,,23.355166666666676
442,2018-05-08,22.63445833333334,,22.63445833333334
442,2018-05-09,21.488708333333335,,21.488708333333335
442,2018-05-10,23.191166666666664,,23.191166666666664
442,2018-05-11,22.183916666666665,,22.183916666666665
442,2018-05-12,22.326291666666673,,22.326291666666673
442,2018-05-13,23.415125000000007,,23.415125000000007
442,2018-05-14,23.520583333333335,,23.520583333333335
442,2018-05-15,23.223625000000002,,23.223625000000002
442,2018-05-16,21.662125000000003,,21.662125000000003
442,2018-05-17,21.427458333333334,,21.427458333333334
442,2018-05-18,22.031666666666666,,22.031666666666666
442,2018-05-19,23.49508333333334,,23.49508333333334
442,2018-05-20,11.25025,,11.25025
442,2018-05-21,18.866250000000004,,18.866250000000004
442,2018-05-22,23.210000000000004,,23.210000000000004
442,2018-05-23,22.108749999999997,,22.108749999999997
442,2018-05-24,22.41633333333333,,22.41633333333333
442,2018-05-25,21.642208333333333,,21.642208333333333
442,2018-05-26,23.657833333333333,,23.657833333333333
442,2018-05-27,22.183208333333337,,22.183208333333337
442,2018-05-28,22.6885,,22.6885
442,2018-05-29,22.13633333333333,,22.13633333333333
442,2018-05-30,22.683291666666662,,22.683291666666662
442,2018-05-31,20.828041666666667,,20.828041666666667
442,2018-06-01,20.70991666666667,,20.70991666666667
442,2018-06-02,21.339625,,21.339625
442,2018-06-03,21.66241666666667,,21.66241666666667
442,2018-06-04,21.404083333333332,,21.404083333333332
442,2018-06-05,22.444333333333333,,22.444333333333333
442,2018-06-06,22.858749999999997,,22.858749999999997
442,2018-06-07,23.365583333333333,,23.365583333333333
442,2018-06-08,22.18595833333333,,22.18595833333333
442,2018-06-09,22.119125,,22.119125
442,2018-06-10,21.96195833333333,,21.96195833333333
442,2018-06-11,23.391625,,23.391625
442,2018-06-12,22.280291666666667,,22.280291666666667
442,2018-06-13,23.224875,,23.224875
442,2018-06-14,22.68525,,22.68525
442,2018-06-15,20.474958333333333,,20.474958333333333
442,2018-06-16,21.073958333333334,,21.073958333333334
442,2018-06-17,21.961916666666664,,21.961916666666664
442,2018-06-18,22.646708333333336,,22.646708333333336
442,2018-06-19,24.538708333333336,,24.538708333333336
442,2018-06-20,22.129916666666663,,22.129916666666663
442,2018-06-21,21.43829166666666,,21.43829166666666
442,2018-06-22,21.423458333333333,,21.423458333333333
442,2018-06-23,19.915625,,19.915625
442,2018-06-24,20.718874999999993,,20.718874999999993
442,2018-06-25,20.575833333333332,,20.575833333333332
442,2018-06-26,21.039249999999996,,21.039249999999996
442,2018-06-27,20.472999999999995,,20.472999999999995
442,2018-06-28,19.200458333333334,,19.200458333333334
442,2018-06-29,22.152499999999993,,22.152499999999993
442,2018-06-30,27.102999999999998,,27.102999999999998
442,2018-07-01,26.290583333333334,,26.290583333333334
442,2018-07-02,27.096541666666663,,27.096541666666663
442,2018-07-03,26.44933333333333,,26.44933333333333
442,2018-07-04,26.25541666666666,,26.25541666666666
442,2018-07-05,26.68645833333333,,26.68645833333333
442,2018-07-06,26.622541666666663,,26.622541666666663
442,2018-07-07,18.959583333333335,,18.959583333333335
442,2018-07-08,21.435083333333328,,21.435083333333328
442,2018-07-09,20.853166666666663,,20.853166666666663
442,2018-07-10,21.017166666666665,,21.017166666666665
442,2018-07-11,20.05033333333333,,20.05033333333333
442,2018-07-12,20.651291666666665,,20.651291666666665
442,2018-07-13,21.25016666666666,,21.25016666666666
442,2018-07-14,16.77729166666666,,16.77729166666666
442,2018-07-15,20.537916666666664,,20.537916666666664
442,2018-07-16,22.023624999999996,,22.023624999999996
442,2018-07-17,23.859624999999998,,23.859624999999998
442,2018-07-18,20.383,,20.383
442,2018-07-19,19.954333333333327,,19.954333333333327
442,2018-07-20,18.99075,,18.99075
442,2018-07-21,18.037666666666663,,18.037666666666663
442,2018-07-22,18.822874999999996,,18.822874999999996
442,2018-07-23,19.898666666666664,,19.898666666666664
442,2018-07-24,20.180041666666668,,20.180041666666668
442,2018-07-25,20.54329166666666,,20.54329166666666
442,2018-07-26,20.877875,,20.877875
442,2018-07-27,21.810166666666664,,21.810166666666664
442,2018-07-28,24.302416666666662,,24.302416666666662
442,2018-07-29,22.510791666666666,,22.510791666666666
442,2018-07-30,23.07979166666667,,23.07979166666667
442,2018-07-31,22.0055,,22.0055
442,2018-08-01,18.295874999999995,,18.295874999999995
442,2018-08-02,19.290708333333328,,19.290708333333328
442,2018-08-03,17.981666666666662,,17.981666666666662
442,2018-08-04,20.370083333333326,,20.370083333333326
442,2018-08-05,18.699541666666665,,18.699541666666665
442,2018-08-06,25.268666666666665,,25.268666666666665
442,2018-08-07,30.0485,,30.0485
442,2018-08-08,29.154,,29.154
442,2018-08-09,23.62912499999999,,23.62912499999999
442,2018-08-10,19.213875,,19.213875
442,2018-08-11,20.583750000000002,,20.583750000000002
442,2018-08-12,17.26983333333333,,17.26983333333333
442,2018-08-13,16.44920833333333,,16.44920833333333
442,2018-08-14,20.63695833333333,,20.63695833333333
442,2018-08-15,19.677416666666662,,19.677416666666662
442,2018-08-16,19.358458333333335,,19.358458333333335
442,2018-08-17,17.2135,,17.2135
442,2018-08-18,20.439125,,20.439125
442,2018-08-19,19.618749999999995,,19.618749999999995
442,2018-08-20,19.286416666666664,,19.286416666666664
442,2018-08-21,18.571708333333326,,18.571708333333326
442,2018-08-22,19.144916666666667,,19.144916666666667
442,2018-08-23,18.385083333333327,,18.385083333333327
442,2018-08-24,16.74608333333333,,16.74608333333333
442,2018-08-25,17.289375,,17.289375
442,2018-08-26,17.99008333333333,,17.99008333333333
442,2018-08-27,18.90783333333333,,18.90783333333333
442,2018-08-28,23.673041666666663,,23.673041666666663
442,2018-08-29,29.41841666666667,,29.41841666666667
442,2018-08-30,29.579625000000004,,29.579625000000004
442,2018-08-31,23.177333333333333,,23.177333333333333